Aérodrome :
LOGIN :

S'inscrire | Disclaimer

   EN    FR    IT 

 










Légende :    VFR   VFR Marginal   IFR   IFR Intensif   IFR Très Intensif
Visi : 
Plafond : 
>= 8 km
>= 3000ft
5 à 8 km
1000 à 3000 ft
1500m à 5 km
500 à 1000 ft
800 à 1500m
200 à 500 ft
< 800m
< 200 ft
Symboles :   Orages  Brouillard  Fortes neiges  Fortes précipitations  Vent > 20 kt
SIGMETs :   Divers  Orages  Givrage  Turbulence  Onde Orograph.  Cendres Volcan.







- Altitude de l'aérodrome : 27 ft
- Code IATA : PMI


LEPA - Palma de Mallorca

DERNIER METAR :
  • 171700Z 25009KT 220V280 CAVOK 30/22 Q1017 NOSIG

METARs EXPIRÉS :
  • 171630Z 24010KT CAVOK 30/21 Q1017 NOSIG
  • 171600Z 23009KT 200V270 CAVOK 30/21 Q1017 NOSIG
  • 171530Z 24010KT 200V270 CAVOK 31/21 Q1018 NOSIG
  • 171500Z 24010KT 210V270 CAVOK 31/20 Q1018 NOSIG
  • 171430Z 24012KT 210V280 CAVOK 31/20 Q1018 NOSIG

TAF TAF LEPA
Valide du 17 à 12h jusqu'au 18 à 12h UTC


171100Z 1712/1812 22010KT 9999 FEW030 TX34/1712Z TN22/1806Z
BECMG 1718/1720 VRB03KT
Pas de NOTAMs connus pour ce terrain.



MET'MAP, la Météo Aéronautique d'un coup d'oeil ! - Copyright ORBIFLY Décembre 2007 - Disclaimer

ORBIFLY MET'MAP TEAM :

Programmation & Développement : Alexandra Zaïnal
Conception & Développement : Baudouin d'Aumeries
Co-Programmation & Développement : Marc-Olivier Méhu
Soutien technique & logistique : Manuel Goepfert

Contact : metmap@orbifly.com




SOURCES & CREDITS :

   NOAA